Location: Newark
(49.8969°N, 3.3422°E)
Time: 20:52:33
(UTC+00:00)

Vanguard 2 Rocket - Pass Details

Date: 18 January 2020
Orbit: 554 x 3327 km, 32.9° (Epoch: 22 February)

Event Time Altitude Azimuth Distance (km) Brightness Sun altitude
Rises 05:41:37 0° 193° (SSW) 3,366 9.8 -18.0°
Reaches altitude 10° 05:46:03 10° 159° (SSE) 2,907 9.9 -17.3°
Maximum altitude 05:48:07 11° 142° (SE) 3,041 10.3 -17.0°
Drops below altitude 10° 05:50:27 10° 125° (SE) 3,415 10.9 -16.6°
Sets 05:57:22 0° 97° (E) 5,195 12.6 -15.6°
